This demonstration page uses our WeatherBlox Daily Observations layout. Learn more.

Left ArrowRight Arrow

34.16533, -84.80231

Hourly Observations for August 3, 2020

Temp ( °F °C ) Dew Point ( °F °C ) Humidity (%) Winds ( mph kmh ) Pressure ( in mb ) Visibility ( mi km ) Precip ( " mm )
12:53 am 00:53 Mostly Clear 75 23.9 67 19.4 76 76 Calm 29.96 1015 10 16 0.00 0.00
1:53 am 01:53 Mostly Clear 74 23.3 67 19.4 79 79 Calm 29.95 1014 10 16 0.00 0.00
2:53 am 02:53 Clear 73 22.8 68 20 84 84 Calm 29.94 1014 10 16 0.00 0.00
3:53 am 03:53 Mostly Cloudy 74 23.3 68 20 82 82 Calm 29.94 1014 10 16 0.00 0.00
4:53 am 04:53 Clear 73 22.8 68 20 84 84 Calm 29.94 1014 10 16 0.00 0.00
5:53 am 05:53 Cloudy with Light Rain 73 22.8 70 21.1 90 90 ESE 5 7 29.94 1014 7 11 0.04 1.02
6:03 am 06:03 Cloudy with Thunderstorms 72 22.2 69 20.6 91 91 ESE 3 6 29.97 1015 6 10 0.02 0.51
6:53 am 06:53 Cloudy with Thunderstorms 73 22.8 67 19.4 81 81 SSE 3 6 29.95 1014 10 16 0.02 0.51
7:21 am 07:21 Mostly Cloudy with Nearby Thunderstorms 73 22.8 69 20.6 87 87 Calm 29.97 1015 10 16 0.00 0.00
7:35 am 07:35 Cloudy with Thunderstorms 72 22.2 69 20.6 91 91 S 9 15 29.99 1015 10 16 0.00 0.00
7:47 am 07:47 Cloudy with Strong Thunderstorms 72 22 68 20 88 88 SSE 16 26 30.02 1016 2 3 0.12 3.05
7:53 am 07:53 Cloudy with Strong Thunderstorms 71 21.7 65 18.3 81 81 ENE 8 13 29.96 1015 1 2 0.19 4.83
7:58 am 07:58 Cloudy with Thunderstorms 71 21.7 65 18.3 81 81 NE 7 11 29.98 1015 3 5 0.00 0.00
8:15 am 08:15 Cloudy with Nearby Thunderstorms 71 21.7 67 19.4 87 87 ENE 5 7 30.00 1016 10 16 0.00 0.00
8:31 am 08:31 Mostly Cloudy with Light Rain 72 22.2 67 19.4 84 84 NE 3 6 30.00 1016 10 16 0.00 0.00
8:53 am 08:53 Partly Cloudy 73 22.8 70 21.1 90 90 Calm 29.98 1015 10 16 0.00 0.00
9:53 am 09:53 Mostly Sunny 75 23.9 69 20.6 82 82 ENE 5 7 29.98 1015 10 16 0.01 0.25
10:53 am 10:53 Partly Cloudy 80 26.7 71 21.7 74 74 ENE 7 11 29.99 1016 10 16 0.00 0.00
11:53 am 11:53 Partly Cloudy 82 27.8 71 21.7 69 69 N 6 9 29.98 1015 10 16 0.00 0.00
12:53 pm 12:53 Sunny 86 30 71 21.7 61 61 NNW 5 7 29.94 1014 10 16 0.00 0.00
1:42 pm 13:42 Partly Cloudy with Nearby Thunderstorms 84 28.9 71 21.7 65 65 VRB 3 6 29.95 1014 10 16 0.00 0.00
1:53 pm 13:53 Mostly Cloudy 84 28.9 70 21.1 63 63 VRB 5 7 29.93 1014 10 16 0.00 0.00
2:04 pm 14:04 Mostly Cloudy with Thunderstorms 84 28.9 70 21.1 63 63 VRB 5 7 29.94 1014 10 16 0.00 0.00
2:19 pm 14:19 Partly Cloudy with Nearby Thunderstorms 81 27.2 68 20 65 65 VRB 5 7 29.95 1014 10 16 0.00 0.00
2:46 pm 14:46 Cloudy with Light Rain 76 24.4 69 20.6 79 79 Calm 29.95 1014 6 10 0.01 0.25
2:53 pm 14:53 Cloudy with Light Rain 76 24.4 70 21.1 82 82 Calm 29.95 1014 8 13 0.01 0.25
3:53 pm 15:53 Partly Cloudy 82 27.8 68 20 63 63 NNE 3 6 29.93 1014 10 16 0.00 0.00
4:53 pm 16:53 Sunny 84 28.9 69 20.6 61 61 ENE 8 13 29.91 1013 10 16 0.00 0.00
5:53 pm 17:53 Sunny 85 29.4 68 20 57 57 VRB 5 7 29.90 1013 10 16 0.00 0.00
6:53 pm 18:53 Sunny 85 29.4 67 19.4 55 55 NNE 5 7 29.89 1012 10 16 0.00 0.00
7:53 pm 19:53 Sunny 82 27.8 68 20 63 63 Calm 29.88 1012 10 16 0.00 0.00
8:53 pm 20:53 Clear 75 23.9 70 21.1 84 84 Calm 29.90 1012 10 16 0.00 0.00
9:53 pm 21:53 Partly Cloudy 73 22.8 69 20.6 87 87 SSE 3 6 29.91 1013 10 16 0.00 0.00
10:53 pm 22:53 Clear 74 23.3 70 21.1 88 88 E 3 6 29.92 1013 10 16 0.00 0.00
11:53 pm 23:53 Mostly Clear 73 22.8 69 20.6 87 87 ESE 3 6 29.92 1013 10 16 0.00 0.00

Powered by AerisWeather